H1 CPF 2 COD 2024 1 27 2 27 1 galileo215 NONE
H2 1707901 7215 43055 2024 1 26 23 59 42 2024 1 31 23 59 42 900 1 1 0 0 0 1
H5 0.5555
H9
10 0 60338  75582.000000  0    3273754.089 -17975302.050  23281547.646
10 0 60338  76482.000000  0    5204275.566 -18700800.249  22340565.195
10 0 60338  77382.000000  0    6990969.371 -19518157.520  21121618.326
10 0 60338  78282.000000  0    8608987.616 -20400186.913  19639889.641
10 0 60338  79182.000000  0   10038660.679 -21316250.268  17913829.514
10 0 60338  80082.000000  0   11266047.341 -22233224.953  15964925.830
10 0 60338  80982.000000  0   12283305.773 -23116551.296  13817435.963
10 0 60338  81882.000000  0   13088873.921 -23931327.852  11498084.348
10 0 60338  82782.000000  0   13687453.802 -24643420.134   9035729.418
10 0 60338  83682.000000  0   14089800.383 -25220548.021   6461004.062
10 0 60338  84582.000000  0   14312321.820 -25633317.735   3805934.121
10 0 60338  85482.000000  0   14376503.757 -25856165.996   1103539.691
10 0 60338  86382.000000  0   14308175.908 -25868186.764  -1612575.764
10 0 60339    882.000000  0   14136644.040 -25653814.627  -4308643.343
10 0 60339   1782.000000  0   13893714.741 -25203343.435  -6951148.445
10 0 60339   2682.000000  0   13612643.637 -24513263.933  -9507247.073
10 0 60339   3582.000000  0   13327040.149 -23586409.828 -11945173.527
10 0 60339   4482.000000  0   13069763.180 -22431907.727 -14234634.418
10 0 60339   5382.000000  0   12871842.401 -21064932.539 -16347184.142
10 0 60339   6282.000000  0   12761458.956 -19506275.973 -18256577.209
10 0 60339   7182.000000  0   12763017.528 -17781741.631 -19939093.109
10 0 60339   8082.000000  0   12896338.827 -15921385.570 -21373829.781
10 0 60339   8982.000000  0   13175997.784 -13958626.008 -22542962.130
10 0 60339   9882.000000  0   13610828.159 -11929249.912 -23431962.483
10 0 60339  10782.000000  0   14203609.093  -9870347.400 -24029780.332
10 0 60339  11682.000000  0   14950943.440  -7819207.090 -24328979.223
10 0 60339  12582.000000  0   15843331.760  -5812206.780 -24325829.121
10 0 60339  13482.000000  0   16865439.740  -3883733.929 -24020353.161
10 0 60339  14382.000000  0   17996550.807  -2065169.511 -23416328.153
10 0 60339  15282.000000  0   19211189.901   -383966.859 -22521238.844
10 0 60339  16182.000000  0   20479899.070   1137145.862 -21346186.382
10 0 60339  17082.000000  0   21770140.744   2480814.707 -19905752.064
10 0 60339  17982.000000  0   23047300.603   3635540.307 -18217817.914
10 0 60339  18882.000000  0   24275758.735   4595974.555 -16303346.200
10 0 60339  19782.000000  0   25419995.681   5363024.355 -14186120.519
10 0 60339  20682.000000  0   26445698.749   5943759.184 -11892451.525
10 0 60339  21582.000000  0   27320833.975   6351125.372  -9450850.882
10 0 60339  22482.000000  0   28016650.114   6603476.050  -6891677.410
10 0 60339  23382.000000  0   28508583.103   6723931.508  -4246759.797
10 0 60339  24282.000000  0   28777032.575   6739590.060  -1549000.552
10 0 60339  25182.000000  0   28807985.936   6680614.227   1168033.837
10 0 60339  26082.000000  0   28593470.315   6579221.005   3870531.386
10 0 60339  26982.000000  0   28131818.087   6468608.006   6524856.463
10 0 60339  27882.000000  0   27427737.524   6381849.341   9097969.635
10 0 60339  28782.000000  0   26492186.282   6350796.034  11557840.196
10 0 60339  29682.000000  0   25342051.594   6405015.678  13873846.143
10 0 60339  30582.000000  0   23999647.193   6570804.764  16017156.506
10 0 60339  31482.000000  0   22492042.686   6870304.862  17961091.227
10 0 60339  32382.000000  0   20850246.428   7320750.533  19681454.022
10 0 60339  33282.000000  0   19108267.498   7933872.701  21156834.067
10 0 60339  34182.000000  0   17302086.201   8715476.329  22368872.735
10 0 60339  35082.000000  0   15468565.341   9665205.727  23302492.079
10 0 60339  35982.000000  0   13644336.373  10776504.944  23946082.247
10 0 60339  36882.000000  0   11864695.295  12036774.540  24291645.530
10 0 60339  37782.000000  0   10162542.792  13427719.885  24334895.310
10 0 60339  38682.000000  0    8567401.768  14925880.131  24075308.714
10 0 60339  39582.000000  0    7104542.915  16503321.313  23516132.369
10 0 60339  40482.000000  0    5794245.589  18128471.919  22664341.221
10 0 60339  41382.000000  0    4651217.000  19767074.809  21530550.968
10 0 60339  42282.000000  0    3684187.764  21383225.700  20128885.194
10 0 60339  43182.000000  0    2895696.315  22940465.735  18476798.899
10 0 60339  44082.000000  0    2282068.769  24402893.965  16594860.591
10 0 60339  44982.000000  0    1833594.719  25736264.939  14506495.694
10 0 60339  45882.000000  0    1534893.256  26909037.044  12237694.432
10 0 60339  46782.000000  0    1365457.607  27893338.826   9816687.869
10 0 60339  47682.000000  0    1300361.128  28665823.035   7273596.133
10 0 60339  48582.000000  0    1311102.381  29208381.692   4640053.234
10 0 60339  49482.000000  0    1366562.632  29508699.841   1948813.178
10 0 60339  50382.000000  0    1434045.609  29560630.686   -766657.676
10 0 60339  51282.000000  0    1480366.792  29364380.426  -3472596.920
10 0 60339  52182.000000  0    1472957.953  28926497.100  -6135365.836
10 0 60339  53082.000000  0    1380952.239  28259663.843  -8721867.329
10 0 60339  53982.000000  0    1176215.682  27382303.129 -11199956.836
10 0 60339  54882.000000  0     834292.759  26318004.464 -13538841.121
10 0 60339  55782.000000  0     335236.323  25094793.502 -15709460.014
10 0 60339  56682.000000  0    -335704.135  23744265.507 -17684846.406
10 0 60339  57582.000000  0   -1187557.472  22300610.294 -19440460.091
10 0 60339  58482.000000  0   -2223285.608  20799559.137 -20954491.398
10 0 60339  59382.000000  0   -3439628.818  19277286.543 -22208130.931
10 0 60339  60282.000000  0   -4827146.514  17769301.166 -23185802.176
10 0 60339  61182.000000  0   -6370452.320  16309360.444 -23875354.176
10 0 60339  62082.000000  0   -8048636.220  14928442.779 -24268211.968
10 0 60339  62982.000000  0   -9835860.710  13653809.281 -24359482.968
10 0 60339  63882.000000  0  -11702112.501  12508184.284 -24148018.032
10 0 60339  64782.000000  0  -13614086.454  11509080.156 -23636426.418
10 0 60339  65682.000000  0  -15536174.308  10668287.439 -22831044.450
10 0 60339  66582.000000  0  -17431527.502   9991546.189 -21741858.190
10 0 60339  67482.000000  0  -19263161.031   9478408.787 -20382381.012
10 0 60339  68382.000000  0  -20995063.984   9122298.503 -18769487.453
10 0 60339  69282.000000  0  -22593282.144   8910761.989 -16923205.309
10 0 60339  70182.000000  0  -24026938.875   8825907.836 -14866468.404
10 0 60339  71082.000000  0  -25269162.389   8845017.481 -12624833.007
10 0 60339  71982.000000  0  -26297890.355   8941309.352 -10226161.285
10 0 60339  72882.000000  0  -27096526.653   9084832.293  -7700275.683
10 0 60339  73782.000000  0  -27654429.609   9243460.245  -5078588.445
10 0 60339  74682.000000  0  -27967216.375   9383956.916  -2393710.893
10 0 60339  75582.000000  0  -28036873.828   9473076.952    320952.672
10 0 60339  76482.000000  0  -27871672.461   9478668.943   3031621.341
10 0 60339  77382.000000  0  -27485885.908   9370745.476   5704558.978
10 0 60339  78282.000000  0  -26899324.909   9122486.495   8306495.282
10 0 60339  79182.000000  0  -26136700.319   8711144.288  10805041.177
10 0 60339  80082.000000  0  -25226835.194   8118821.501  13169093.263
10 0 60339  80982.000000  0  -24201750.722   7333097.604  15369222.187
10 0 60339  81882.000000  0  -23095654.748   6347483.959  17378040.028
10 0 60339  82782.000000  0  -21943864.690   5161693.082  19170542.044
10 0 60339  83682.000000  0  -20781698.716   3781713.514  20724418.510
10 0 60339  84582.000000  0  -19643369.995   2219687.835  22020332.726
10 0 60339  85482.000000  0  -18560918.762    493597.566  23042161.758
10 0 60339  86382.000000  0  -17563215.676  -1373235.283  23777196.932
10 0 60340    882.000000  0  -16675067.728  -3352814.448  24216301.621
10 0 60340   1782.000000  0  -15916454.679  -5413282.658  24354024.420
10 0 60340   2682.000000  0  -15301919.912  -7519856.492  24188666.325
10 0 60340   3582.000000  0  -14840134.721  -9635853.647  23722301.152
10 0 60340   4482.000000  0  -14533649.592 -11723780.559  22960748.962
10 0 60340   5382.000000  0  -14378840.187 -13746446.399  21913502.858
10 0 60340   6282.000000  0  -14366049.607 -15668068.671  20593610.086
10 0 60340   7182.000000  0  -14479922.381 -17455335.911  19017508.935
10 0 60340   8082.000000  0  -14699919.599 -19078394.313  17204823.472
10 0 60340   8982.000000  0  -15000998.924 -20511727.504  15178118.664
10 0 60340   9882.000000  0  -15354438.087 -21734902.030  12962618.950
10 0 60340  10782.000000  0  -15728775.911 -22733155.334  10585893.769
10 0 60340  11682.000000  0  -16090841.279 -23497807.919   8077513.978
10 0 60340  12582.000000  0  -16406837.678 -24026486.924   5468683.450
10 0 60340  13482.000000  0  -16643449.215 -24323154.249   2791850.488
10 0 60340  14382.000000  0  -16768933.350 -24397938.467     80303.909
10 0 60340  15282.000000  0  -16754165.997 -24266775.961  -2632241.129
10 0 60340  16182.000000  0  -16573606.172 -23950872.648  -5312062.360
10 0 60340  17082.000000  0  -16206149.907 -23476003.306  -7925849.466
10 0 60340  17982.000000  0  -15635846.608 -22871670.577 -10441117.725
10 0 60340  18882.000000  0  -14852455.406 -22170150.103 -12826611.101
10 0 60340  19782.000000  0  -13851824.038 -21405451.784 -15052689.796
10 0 60340  20682.000000  0  -12636078.380 -20612229.752 -17091697.481
10 0 60340  21582.000000  0  -11213616.668 -19824675.221 -18918303.712
10 0 60340  22482.000000  0   -9598908.547 -19075426.870 -20509817.358
10 0 60340  23382.000000  0   -7812105.178 -18394532.846 -21846467.242
10 0 60340  24282.000000  0   -5878472.505 -17808496.817 -22911646.625
10 0 60340  25182.000000  0   -3827665.291 -17339437.887 -23692118.573
10 0 60340  26082.000000  0   -1692864.472 -17004390.589 -24178179.770
99